HIMAWARI 1 AKM, 59985

Orbit data source: Space-Track

HIMAWARI 1 AKM, 59985 is space debris in GEO originally from a launch on Thu, 14 Jul 1977 UTC launched from the Air Force Eastern Test Range (AFETR). Debris objects in space refer to the collection of defunct objects orbiting the Earth. Examples of debris include non-operational satellites, rocket bodies, and fragments generated from explosions, collisions, or faulty payload assembly.

Not visible in the next 10 days
Identifier
59985, 1977-065GQ
Orbit
GEO
Country
Flag of JPJP / JPN
Related business
Manufacturer
Thiokol/TE
Mission
Spacecraft
Bus & Motor
STAR 27, Unknown motor
Mass
Wet unknown, 24 kg dry
Launch date (UTC)
1977-07-14 (48 years ago)
Launch vehicle
Unknown
Launch site
Air Force Eastern Test Range (AFETR)
Object type
Payload
Rocket body
Debris
Shape & HBR
Unknown shape, 8.0 m
Radar Cross Section
Medium (>0.1 m² and <1 m²)

Expand to show TLE details & history
Last TLE update: 1 day ago

TLE from 1 day ago
0 HIMAWARI 1 AKM
1 59985U 77065GQ  25302.63420228  .00000109  00000-0  00000-0 0  9990
2 59985   4.7922 276.6807 0270234 115.1372 247.5817  1.01119681 44118
Epoch: 2025-10-29T15:13Z
TLE epoch observation values (Epoch: 2025-10-29T15:13:15.076Z)
Latitude
-0.00001°
Longitude
10.0087°
Altitude
36,010.978 km
Speed
3.05 km/s
True Right ascension
18h 26m 06s
True Declination
0° 00' 00"
Sunlit
Object was in daylight at epoch
Visualization orbit readout
Latitude
Unknown
Longitude
Unknown
Altitude
Unknown
Speed
Unknown
Apparent Right ascension
Unknown
Apparent Declination
Unknown
Sunlit
N/A
Visualization observer readout
Local Sidereal Time
16:33:39
Azimuth
Unknown
Elevation
Unknown
Doppler factor
Unknown
Orbital elements
Apogee altitude
36,684.712 km
Perigee altitude
34,418.543 km
Semi-major axis
41,929.765 km
Eccentricity
0.02702
Inclination
4.7922°
RAAN
276.6807°
Arg. of periapsis
115.1372°
True anomaly
244.75665°
Mean anomaly
247.5817°
Eccentric anomaly
246.16542°
Mean motion
0.25279 °/min
Orbital period
1,424.11 mins
BSTAR
0
Loading maneuver chart data...
Computing Atmospheric mass density...

Documentation

Showing up to 5 results
|